Zurück zum Katalog

STARLINK-6203

AktivKommunikationVLEO
NORAD 56899·PAYLOAD·🇺🇸 United States

Gestartet Jun 12, 2023 von Cape Canaveral Space Force Station

Loading…

Nächste Überflüge (nächste 24 Stunden)

TLE

AktuellSource: CelesTrak SupGP

Epoche: Sep 15, 2026, 03:16 UTC

1 56899C 23083Z   26258.13659722 -.00006244  00000+0 -22630-3 0  2582
2 56899  43.0004  91.5542 0001110 267.4139 240.1461 15.27560616    19

Verfolge STARLINK-6203 in Echtzeit mit AllMySat

Download on the App Store